This is the latest recevied weather packets stored in our database for station/object KA9CBS. If no packets are shown the sender has not sent any weather packets the latest 10 day(s).
| Time | Temp. | Humidity | Pressure | Rain* | Wind** | Luminosity | Snow |
|---|---|---|---|---|---|---|---|
| 1778075058 | 8.89° C | 98% | 1016.2 hPa | 0 mm | - | 62 W/m² | - |
| 1778074755 | 8.89° C | 98% | 1016.3 hPa | 0 mm | - | 56 W/m² | - |
| 1778074452 | 8.89° C | 98% | 1016.3 hPa | 0 mm | - | 49 W/m² | - |
| 1778074148 | 8.89° C | 98% | 1016.3 hPa | 0 mm | - | 49 W/m² | - |
| 1778073845 | 8.89° C | 98% | 1016.4 hPa | 0 mm | - | 55 W/m² | - |
| 1778073543 | 8.89° C | 98% | 1016.2 hPa | 0 mm | - | 60 W/m² | - |
| 1778073239 | 8.89° C | 98% | 1016.3 hPa | 0 mm | - | 58 W/m² | - |
| 1778072937 | 8.89° C | 98% | 1015.9 hPa | 0 mm | - | 42 W/m² | - |
| 1778072633 | 8.89° C | 99% | 1015.6 hPa | 0 mm | - | 79 W/m² | - |
| 1778072331 | 8.89° C | 99% | 1015.8 hPa | 0 mm | - | 83 W/m² | - |
| 1778072029 | 8.33° C | 99% | 1015.8 hPa | 0 mm | - | 64 W/m² | - |
| 1778071727 | 8.89° C | 99% | 1015.8 hPa | 0 mm | - | 54 W/m² | - |
| 1778071424 | 8.89° C | 99% | 1015.6 hPa | 0 mm | - | 69 W/m² | - |
| 1778071121 | 8.33° C | 99% | 1015.8 hPa | 0 mm | - | 60 W/m² | - |
| 1778070820 | 8.33° C | 99% | 1015.7 hPa | 0 mm | - | 55 W/m² | - |
| 1778070517 | 8.33° C | 99% | 1015.9 hPa | 0 mm | - | 55 W/m² | - |
| 1778070213 | 8.33° C | 99% | 1016 hPa | 0 mm | - | 27 W/m² | - |
| 1778069912 | 8.33° C | 99% | 1016.1 hPa | 0 mm | - | 35 W/m² | - |
| 1778069608 | 8.33° C | 99% | 1015.7 hPa | 0 mm | - | 47 W/m² | - |
| 1778069306 | 8.33° C | 99% | 1015.8 hPa | 0 mm | - | 41 W/m² | - |
| 1778069003 | 8.33° C | 99% | 1015.7 hPa | 0 mm | - | 32 W/m² | - |
| 1778068700 | 8.33° C | 99% | 1015.2 hPa | 0 mm | - | 36 W/m² | - |
| 1778068399 | 8.33° C | 99% | 1015.4 hPa | 0 mm | - | 36 W/m² | - |
| 1778068096 | 7.78° C | 99% | 1015.4 hPa | 0 mm | - | 26 W/m² | - |
| 1778067794 | 7.78° C | 99% | 1014.9 hPa | 0 mm | - | 15 W/m² | - |
* Rain latest hour (hover to see other rain measurements)
** Current wind speed in m/s (hover to see current wind gust speed)